CAPE
578 837 995 815 1149 1068 562 834 528 1046 952 953 730 462 622 1113 1130 1056 883 669 696 728 541 876 706 908 943 1516 1328 876 942 1035 845 804 1149 1135 1326 1088 1241 1072 1219 1305 1593
552 574 743 690 792 737 684 1282 1146 824 713 712 587 569 524 976 1062 959 820 816 893 882 390 590 703 827 749 1112 1069 509 938 1192 1088 938 1173 1174 1045 966 1200 1007 1232 1540 1237
176 208 256 369 668 802 788 742 1250 903 658 579 374 262 595 764 1043 1251 916 777 744 873 933 664 430 461 404 357 507 621 620 744 905 786 717 997 853 965 1005 943 749 528 272
59 139 70 85 330 346 687 733 798 1232 926 642 520 225 530 542 905 1150 1249 1139 1072 1056 1072 879 842 774 596 521 777 845 957 900 804 727 785 938 996 1291 1373 1088 201 58 11
50 45 97 1 155 151 57 327 962 966 1174 1074 839 765 752 578 557 1242 1350 1179 1188 1083 1043 1342 1278 1225 1143 1001 1017 1036 1051 1059 1044 951 754 791 918 883 817 937 420 4 15
49 100 161 152 11 0 22 11 237 880 1117 1090 1269 1408 1352 1355 1609 1418 1471 1418 1291 1031 1020 1154 1351 1460 1562 1527 1317 1518 1604 1273 1214 1061 923 735 241 7 6 0 0 21 96
1 6 32 142 97 69 33 8 153 394 574 769 1201 1263 1246 1302 1256 1067 990 1415 1463 1350 1319 1318 1212 1211 1129 1140 1288 1333 968 1107 1179 1092 941 740 603 394 153 142 162 300 329
0 0 0 0 7 39 58 85 201 312 479 582 707 837 1110 1481 1582 1468 1188 907 898 952 1030 1180 1295 1351 1253 1170 1160 1252 1454 1484 1124 840 838 921 864 879 646 750 548 592 710
0 0 0 0 0 0 0 0 4 54 102 225 446 655 700 864 1008 1012 982 814 841 849 826 877 1004 1247 1529 1413 1443 1345 1250 1251 1383 1297 1119 1125 1134 1095 1135 924 1193 1027 732
0 0 0 0 0 0 0 0 0 0 0 0 8 79 471 529 587 725 724 767 787 862 850 837 802 882 693 665 881 1062 1019 875 904 828 1035 960 1035 1098 1002 759 1195 954 720
0 0 0 0 0 0 0 0 0 0 0 0 0 50 54 85 206 321 324 536 668 742 772 813 803 703 419 280 313 583 677 620 662 725 861 990 1081 1090 1057 927 754 918 738
0 0 0 0 0 0 0 0 0 0 0 0 0 0 0 0 0 8 72 79 76 424 576 686 674 417 341 460 397 401 346 252 267 480 520 589 595 724 915 1053 967 810 825
0 0 0 0 0 0 0 0 0 0 0 0 0 0 0 0 0 0 0 0 0 0 4 5 0 0 11 94 342 440 256 323 428 425 483 469 404 370 360 517 649 758 793
0 0 0 0 0 0 0 0 0 0 0 0 0 0 0 0 0 0 0 0 0 0 0 0 0 0 0 0 0 0 0 0 48 250 397 384 306 276 325 258 304 453 446
0 0 0 0 0 0 0 0 0 0 0 0 0 0 0 0 0 0 0 0 0 0 0 0 0 0 0 0 0 0 0 0 25 148 333 463 475 374 305 176 144 216 290
0 0 0 0 0 0 0 0 0 0 0 0 0 0 0 0 0 0 0 0 0 0 0 0 0 0 0 0 0 0 0 2 63 295 445 465 456 417 387 300 215 229 240
0 0 0 0 0 0 0 0 0 0 0 0 0 0 0 0 0 0 0 0 0 0 0 0 0 0 0 0 0 0 0 7 120 203 387 506 555 511 489 458 451 437 451
0 0 0 0 0 0 0 0 0 0 0 0 0 0 0 0 0 0 0 0 0 0 0 0 0 0 0 0 0 0 0 0 0 0 1 211 357 359 403 416 478 447 421
0 0 0 0 0 0 0 0 0 0 0 0 0 0 0 0 0 0 0 0 0 0 0 0 0 0 0 0 0 0 0 0 1 3 3 3 0 152 221 249 246 155 121
0 0 0 0 0 0 0 0 0 0 0 0 0 0 0 0 0 0 0 0 2 1 1 1 2 0 0 0 0 0 0 0 0 1 3 2 2 1 4 62 77 80 0
0 0 0 0 0 0 0 0 0 0 0 0 0 0 0 0 0 0 0 0 0 0 0 0 0 0 0 0 1 0 0 0 1 1 3 4 4 2 4 7 38 72 27
0 0 0 0 0 0 0 0 0 0 0 0 0 0 0 0 0 0 0 0 0 5 0 0 0 0 0 0 0 1 0 0 0 2 2 4 4 8 7 6 2 1 0
0 0 0 0 0 0 0 0 0 0 1 0 0 0 0 0 1 0 0 1 3 6 2 0 0 0 0 0 0 1 0 0 2 4 3 6 6 7 8 7 7 4 1
0 0 0 0 0 0 1 1 0 0 0 0 1 1 2 3 1 5 3 5 2 0 2 0 0 0 0 0 1 2 4 3 4 7 7 5 6 7 8 7 6 5 6
0 0 0 0 0 0 0 0 0 0 0 1 1 3 5 0 2 6 9 10 17 9 0 0 0 0 0 0 0 0 1 0 0 0 2 6 3 4 7 7 5 5 6
0 0 0 0 0 0 0 0 0 0 1 2 2 1 1 3 5 3 3 2 5 5 2 1 1 0 1 0 0 0 0 0 0 0 0 1 2 4 6 6 6 5 3
CIN
-61 -52 -51 -71 -59 -41 -57 -36 -71 -46 -57 -52 -65 -87 -70 -48 -45 -41 -44 -52 -50 -50 -66 -57 -66 -74 -59 -54 -66 -79 -74 -72 -62 -82 -83 -81 -54 -69 -82 -129 -131 -119 -84
-73 -47 -46 -39 -74 -74 -57 -31 -37 -59 -65 -53 -69 -73 -75 -45 -47 -56 -57 -51 -42 -45 -77 -76 -78 -75 -71 -67 -66 -66 -57 -63 -55 -48 -86 -72 -71 -97 -91 -132 -117 -90 -110
-131 -110 -68 -51 -35 -17 -46 -50 -33 -54 -70 -75 -100 -111 -63 -56 -57 -39 -55 -51 -51 -47 -47 -65 -73 -88 -77 -87 -73 -69 -63 -68 -65 -74 -92 -86 -93 -67 -74 -108 -145 -168 -228
-117 -81 -153 -163 -93 -87 -52 -26 -25 -34 -58 -71 -90 -117 -75 -67 -43 -38 -35 -33 -38 -37 -36 -36 -41 -48 -49 -39 -34 -41 -40 -43 -52 -72 -90 -78 -72 -60 -54 -62 -230 -330 -394
-134 -97 -50 -40 -119 -141 -187 -112 -41 -16 -20 -42 -49 -59 -59 -61 -53 -19 -21 -24 -29 -35 -40 -25 -27 -29 -25 -32 -27 -18 -20 -27 -28 -35 -66 -77 -65 -66 -54 -66 -174 -445 -415
-148 -90 -127 -34 -184 -2 -101 -225 -134 -32 -10 -18 -15 -17 -27 -26 -16 -12 -13 -10 -16 -24 -26 -27 -30 -20 -27 -23 -26 -28 -22 -15 -17 -26 -43 -80 -145 -363 -371 -0 -7 -363 -248
-12 -184 -132 -86 -114 -98 -134 -181 -133 -83 -95 -69 -24 -18 -21 -23 -22 -27 -30 -17 -14 -17 -20 -20 -21 -20 -18 -19 -20 -29 -37 -38 -33 -30 -33 -64 -77 -102 -192 -200 -199 -162 -152
-0 -0 -0 -0 -101 -120 -164 -111 -86 -86 -89 -88 -56 -44 -36 -28 -16 -17 -31 -36 -38 -42 -47 -38 -22 -20 -21 -22 -21 -19 -19 -23 -39 -57 -49 -47 -69 -58 -75 -57 -102 -124 -149
-0 -0 -0 -0 -0 -0 -0 -0 -102 -184 -158 -133 -73 -50 -55 -82 -71 -64 -53 -62 -50 -57 -56 -52 -45 -38 -31 -21 -17 -21 -32 -39 -38 -47 -48 -52 -47 -52 -44 -57 -32 -44 -109
-0 -0 -0 -0 -0 -0 -0 -0 -0 -0 -0 -0 -198 -120 -33 -54 -67 -52 -67 -62 -53 -46 -60 -63 -70 -49 -56 -50 -29 -29 -32 -79 -64 -69 -57 -78 -77 -68 -66 -98 -42 -52 -82
-0 -0 -0 -0 -0 -0 -0 -0 -0 -0 -0 -0 -0 -139 -159 -179 -133 -117 -129 -92 -82 -63 -63 -60 -55 -69 -131 -155 -129 -82 -71 -95 -91 -86 -86 -86 -86 -95 -107 -111 -122 -64 -60
-0 -0 -0 -0 -0 -0 -0 -0 -0 -0 -0 -0 -0 -0 -0 -0 -0 -100 -229 -228 -242 -90 -71 -87 -97 -160 -170 -122 -142 -135 -139 -161 -173 -120 -121 -139 -136 -119 -98 -91 -107 -102 -86
-0 -0 -0 -0 -0 -0 -0 -0 -0 -0 -0 -0 -0 -0 -0 -0 -0 -0 -0 -0 -0 -0 -23 -25 -0 -25 -307 -218 -116 -110 -150 -132 -115 -135 -143 -161 -152 -133 -120 -112 -119 -108 -98
-0 -0 -0 -0 -0 -0 -0 -0 -0 -0 -0 -0 -0 -0 -0 -0 -0 -0 -0 -0 -0 -0 -0 -0 -0 -0 -0 -0 -0 -0 -0 -0 -202 -187 -174 -187 -206 -184 -151 -150 -127 -122 -103
-0 -0 -0 -0 -0 -0 -0 -0 -0 -0 -0 -0 -0 -0 -0 -0 -0 -0 -0 -0 -0 -0 -0 -0 -0 -0 -0 -0 -0 -0 -0 -0 -225 -176 -138 -114 -115 -138 -180 -185 -160 -134 -97
-0 -0 -0 -0 -0 -0 -0 -0 -0 -0 -0 -0 -0 -0 -0 -0 -0 -0 -0 -0 -0 -0 -0 -0 -0 -0 -0 -0 -0 -0 -0 -133 -150 -76 -58 -54 -63 -82 -109 -128 -112 -92 -65
-0 -0 -0 -0 -0 -0 -0 -0 -0 -0 -0 -0 -0 -0 -0 -0 -0 -0 -0 -0 -0 -0 -0 -0 -0 -0 -0 -0 -0 -0 -0 -49 -72 -54 -30 -13 -5 -17 -34 -54 -49 -24 -10
-0 -0 -0 -0 -0 -0 -0 -0 -0 -0 -0 -0 -0 -0 -0 -0 -0 -0 -0 -0 -0 -0 -0 -0 -0 -0 -0 -0 -0 -0 -0 -0 -0 -0 -0 -24 -1 -2 -5 -10 -10 -14 -16
-0 -0 -0 -0 -0 -0 -0 -0 -0 -0 -0 -0 -0 -0 -0 -0 -0 -0 -0 -0 -0 -0 -0 -0 -0 -0 -0 -0 -0 -0 -0 -0 -0 -0 -0 -0 -0 -5 -5 -5 -12 -56 -67
-0 -0 -0 -0 -0 -0 -0 -0 -0 -0 -0 -0 -0 -0 -0 -0 -0 -0 -0 -0 -0 -0 -0 -0 -0 -0 -0 -0 -0 -0 -0 -0 -0 -0 -0 -0 -0 -0 -1 -36 -44 -46 -0
-0 -0 -0 -0 -0 -0 -0 -0 -0 -0 -0 -0 -0 -0 -0 -0 -0 -0 -0 -0 -0 -0 -0 -0 -0 -0 -0 -0 -0 -0 -0 -0 -0 -0 -0 -0 -0 -0 -0 -2 -23 -19 -38
-0 -0 -0 -0 -0 -0 -0 -0 -0 -0 -0 -0 -0 -0 -0 -0 -0 -0 -0 -0 -0 -2 -0 -0 -0 -0 -0 -0 -0 -0 -0 -0 -0 -0 -0 -0 -0 -0 -0 -0 -0 -10 -3
-0 -0 -0 -0 -0 -0 -0 -0 -0 -0 -0 -0 -0 -0 -0 -0 -1 -0 -0 -0 -0 -0 -7 -0 -0 -0 -0 -0 -0 -0 -0 -0 -0 -0 -0 -0 -0 -0 -0 -0 -0 -0 -0
-0 -0 -0 -0 -0 -0 -1 -0 -1 -0 -0 -0 -0 -0 -0 -0 -0 -0 -0 -0 -1 -0 -4 -0 -0 -0 -0 -0 -0 -0 -0 -0 -0 -0 -0 -0 -0 -0 -0 -0 -0 -0 -31
-0 -0 -0 -0 -0 -0 -0 -0 -0 -0 -0 -0 -0 -0 -0 -0 -0 -0 -0 -0 -0 -0 -0 -0 -0 -0 -0 -0 -0 -0 -0 -0 -0 -0 -0 -0 -0 -0 -0 -0 -0 -0 -0
-0 -0 -0 -0 -0 -0 -0 -0 -0 -0 -0 -0 -0 -0 -0 -0 -0 -0 -0 -0 -0 -0 -0 -0 -0 -0 -0 -0 -0 -0 -0 -0 -0 -0 -0 -0 -0 -0 -0 -0 -0 -0 -0
Wind_Speed
23 29 34 36 35 33 31 30 30 29 24 20 23 23 23 25 26 26 26 26 26 26 26 27 27 26 24 23 22 21 21 21 24 25 24 26 27 29 30 31 29 29 30
22 25 30 28 35 36 35 33 27 31 31 23 19 23 24 25 25 25 26 26 26 25 26 26 28 28 27 25 25 25 24 22 24 29 28 28 30 29 31 30 28 26 26
20 20 24 26 30 34 35 34 29 29 32 32 31 28 27 27 26 25 24 25 26 27 26 26 27 28 29 29 29 29 28 26 25 27 31 27 29 29 28 26 27 29 30
24 28 29 27 24 27 31 34 35 32 31 33 32 32 32 31 30 28 26 25 24 26 28 28 27 27 27 27 26 27 27 27 26 28 29 29 27 25 25 27 32 31 34
15 12 20 30 29 26 28 28 28 34 33 33 34 33 33 32 33 33 31 30 30 29 28 28 28 29 28 28 28 30 27 27 26 26 28 25 26 28 29 25 29 32 33
13 14 13 16 19 29 37 30 27 29 32 34 35 35 34 32 31 34 35 34 33 32 33 33 32 31 31 31 31 30 31 29 28 23 24 29 30 26 25 27 29 31 29
12 14 13 12 12 13 21 24 28 28 28 32 35 35 35 33 33 32 33 35 35 35 35 35 34 33 33 32 31 30 30 8 8 14 13 20 32 30 28 32 28 27 28
14 14 14 13 13 14 15 15 22 25 27 27 30 33 34 32 31 34 36 34 36 36 35 36 37 37 32 30 33 33 31 29 24 16 9 12 10 10 10 10 29 28 28
16 17 18 17 16 15 16 17 18 22 24 27 30 32 34 34 32 33 34 33 36 40 39 34 30 33 33 30 30 33 37 37 30 23 12 14 13 12 11 21 25 29 33
20 20 20 20 20 20 21 22 22 23 24 26 28 27 29 31 32 32 31 30 33 33 33 36 37 34 33 31 31 34 37 34 33 34 31 25 15 14 14 16 19 17 20
22 22 22 22 22 22 23 23 24 24 24 25 24 24 24 26 28 30 30 29 31 35 35 34 32 34 35 34 31 33 37 39 37 35 35 35 33 30 26 23 19 18 20
24 25 25 25 24 24 25 26 25 25 25 23 21 23 24 24 24 24 25 26 29 29 31 30 29 31 32 33 34 35 36 37 36 37 37 37 35 34 32 28 24 22 21
23 25 25 25 25 25 25 25 26 27 28 27 28 29 30 29 28 28 27 26 27 27 29 30 32 32 33 34 35 36 37 37 37 38 37 37 35 36 36 34 31 28 27
23 24 24 25 27 27 26 26 26 27 29 30 32 33 33 33 33 32 31 31 32 32 33 34 34 34 33 34 37 36 34 31 34 35 40 40 38 38 40 36 35 34 33
21 22 24 24 25 26 26 27 28 27 28 32 32 33 35 37 36 36 36 37 36 33 35 35 36 36 37 36 36 33 32 33 34 33 33 34 34 33 32 32 32 34 34
21 22 23 23 24 26 28 30 28 30 33 32 33 33 35 36 39 40 39 39 38 34 35 36 37 37 38 37 36 35 34 35 36 36 35 35 35 34 34 32 27 28 33
21 22 23 24 26 27 28 29 33 36 34 35 36 37 38 38 40 41 41 40 38 35 38 39 39 38 37 36 36 36 38 38 39 38 38 37 36 35 33 33 33 29 29
23 24 25 27 28 29 31 32 33 35 37 38 37 39 41 42 42 42 42 40 42 38 40 41 40 37 35 35 36 38 40 41 40 41 41 41 38 37 37 35 30 29 25
23 25 27 28 29 31 32 34 35 37 38 40 40 39 39 42 44 43 40 42 44 44 42 40 35 35 36 37 38 39 40 41 43 43 41 41 41 40 40 37 34 29 28
24 26 27 29 30 32 34 35 37 38 40 42 43 43 44 46 46 45 44 42 41 40 36 34 35 37 39 40 41 41 42 42 42 43 44 43 42 42 42 40 36 34 31
24 25 27 29 31 33 35 36 38 39 41 43 45 45 47 47 47 47 47 45 44 41 39 38 39 39 40 41 42 43 44 45 44 44 45 45 44 45 43 41 41 36 34
23 26 28 31 33 35 36 38 39 41 43 45 46 47 48 49 49 49 49 49 48 44 41 42 42 42 41 42 43 45 46 47 46 46 46 46 46 46 45 44 40 37 36
24 26 29 31 34 36 38 39 40 42 44 46 48 49 49 48 48 49 49 49 48 49 45 45 47 48 46 47 45 45 47 48 47 46 47 47 47 45 44 43 42 39 36
24 28 31 34 37 38 39 41 42 44 45 47 48 48 48 49 50 49 49 49 51 52 47 47 49 52 51 50 48 48 47 48 48 47 47 48 48 46 44 42 41 40 37
24 28 31 34 38 39 42 43 44 45 46 47 47 47 48 47 48 48 47 47 47 46 46 49 51 52 53 53 51 51 50 50 50 49 48 47 47 46 44 42 41 40 39
22 26 30 32 36 38 40 43 45 46 47 47 47 47 46 46 46 46 46 47 46 47 47 47 48 48 49 49 49 49 49 49 48 47 46 45 44 44 42 42 41 40 38
Wind_Direction
254 243 230 208 214 216 221 223 208 204 176 164 175 175 181 187 189 191 199 209 210 217 223 229 235 244 251 261 266 276 285 285 277 282 295 293 297 298 295 296 289 299 318
260 254 247 250 229 217 221 226 243 209 214 177 163 181 184 184 189 188 199 213 221 229 227 231 231 239 246 263 263 273 281 295 299 285 295 302 302 311 306 313 320 328 333
267 268 261 259 252 243 235 233 246 244 227 219 221 199 195 197 198 192 189 198 210 221 228 227 234 243 242 258 267 266 270 285 298 298 292 311 311 315 321 330 329 320 313
270 266 257 261 268 262 256 246 241 246 245 235 238 226 215 220 214 209 199 198 202 218 225 228 232 241 247 262 277 271 284 292 299 301 299 304 314 324 326 328 311 318 310
279 291 268 264 262 267 263 260 259 248 250 249 241 248 245 248 235 228 219 215 219 227 226 224 230 230 225 230 277 262 288 294 300 308 308 319 317 316 315 333 325 320 321
285 303 310 285 275 265 251 256 261 259 256 253 252 250 251 257 260 251 241 239 228 230 237 243 240 242 248 252 253 245 246 289 297 316 316 307 305 321 327 327 324 322 329
351 345 324 320 324 304 284 265 263 265 268 261 256 258 257 262 262 266 262 255 252 250 247 245 245 260 265 277 283 287 291 307 306 318 321 277 301 296 319 311 321 327 327
340 345 345 351 345 332 318 304 266 276 276 277 271 265 264 267 269 264 262 267 265 267 270 269 264 263 280 286 280 284 290 297 306 315 301 243 247 247 324 322 319 322 323
331 330 329 328 334 328 319 315 303 287 283 279 272 272 269 270 273 274 274 275 272 265 270 279 286 284 285 290 292 289 285 287 301 307 292 252 254 260 291 322 320 320 316
321 322 321 322 320 313 306 302 301 300 298 289 280 285 278 277 276 279 282 284 282 283 284 280 279 285 288 290 291 292 291 297 300 301 304 307 293 286 286 302 309 305 315
315 318 319 318 314 313 309 305 301 302 302 300 296 294 298 294 288 287 286 288 285 280 282 286 288 288 287 288 292 293 290 291 295 299 300 301 303 305 307 306 304 303 310
308 308 309 311 313 311 306 303 303 302 302 307 307 304 304 306 310 309 304 297 294 292 290 290 292 292 292 291 291 292 294 294 296 296 296 297 300 301 303 305 304 302 301
312 309 307 308 310 310 308 308 303 302 300 298 299 299 299 301 302 304 305 307 304 301 299 297 297 295 295 293 294 292 295 296 295 294 295 297 299 301 302 303 303 302 301
314 312 311 306 303 305 305 306 304 304 303 301 297 295 297 298 299 300 299 299 299 298 296 295 296 297 296 295 297 298 298 300 298 298 294 294 297 298 297 300 299 300 301
318 317 315 315 311 306 305 303 301 303 305 301 301 300 298 295 296 297 296 294 295 298 297 296 296 295 295 297 297 301 302 302 299 301 302 303 303 303 304 307 304 301 300
320 319 318 317 316 313 308 301 303 302 300 301 301 303 302 301 299 297 295 294 294 296 295 295 295 296 294 295 297 298 300 300 300 299 301 303 301 302 304 307 307 305 303
320 318 318 317 314 312 311 309 304 299 301 299 299 299 300 302 303 301 298 296 296 295 290 290 292 295 296 296 296 296 296 299 299 300 300 302 303 303 303 303 304 305 304
317 317 316 315 314 312 310 308 306 304 302 301 301 299 297 298 300 301 301 298 294 293 291 289 289 292 295 297 297 297 296 297 298 298 300 300 302 303 302 303 304 303 301
318 317 317 316 316 314 312 310 308 306 303 301 302 303 303 300 298 298 301 298 293 292 291 290 288 290 292 295 297 297 298 297 297 298 299 298 301 302 301 302 303 302 303
320 319 320 319 318 317 315 312 310 308 305 303 301 300 300 300 297 296 295 297 299 295 294 292 291 291 292 292 293 294 296 297 297 297 297 298 298 299 300 302 302 301 301
321 322 321 322 322 320 319 317 314 311 308 306 303 302 300 298 296 295 293 292 292 292 292 291 291 292 293 293 293 293 293 293 295 295 296 296 296 295 298 298 299 300 301
324 323 324 324 324 323 322 320 317 314 312 309 306 304 302 299 296 294 292 290 289 289 289 288 288 289 291 291 292 291 291 291 292 293 293 294 295 295 294 294 296 297 298
323 324 324 326 327 326 325 324 321 318 316 313 310 307 304 302 300 297 294 291 289 285 285 285 286 286 288 288 288 288 288 289 290 291 291 291 291 292 293 291 292 293 294
323 325 326 326 327 328 328 326 324 322 320 317 313 310 307 304 301 298 295 292 290 286 285 284 284 285 285 285 285 285 286 287 287 287 288 287 288 289 289 289 289 288 289
324 326 327 327 328 329 329 329 327 326 324 321 318 315 311 307 303 300 297 295 292 288 286 285 285 284 283 282 282 282 283 284 284 284 283 283 283 284 285 286 286 287 285
325 328 330 331 332 333 333 332 330 328 326 324 321 318 314 311 306 302 299 296 293 290 288 287 286 284 283 282 281 281 281 282 282 282 281 280 280 282 283 282 284 284 284